When you browse on this site, cookies collect data to enhance your experience and personalize the content and advertising you see.
Visit our Privacy Policy to learn more. By continuing to use the site, you agree to this use of cookies and data.
  • Em Portugal
  • Lista de países
  • Para 7 dias
  • Temperatura da água
  • Mapas de satélite
  • Mapa do tempo
  • Widgets de tempo
  • user-avatar
    Iniciar Sessão

    Previsão horária em Malanville

    Hoje, 15 Dezembro, Sábado

    Tempo Temperatura Precipitação Vento Pressão Humidade
    00:00 +27°C° 0 mm 2 m/s 745 mmHg 17%
    01:00 +26°C° 0 mm 2 m/s 745 mmHg 17%
    02:00 +26°C° 0 mm 2 m/s 745 mmHg 18%
    03:00 +25°C° 0 mm 2 m/s 745 mmHg 18%
    04:00 +24°C° 0 mm 2 m/s 746 mmHg 18%
    05:00 +24°C° 0 mm 2 m/s 746 mmHg 19%
    06:00 +23°C° 0 mm 2 m/s 746 mmHg 19%
    07:00 +26°C° 0 mm 2 m/s 747 mmHg 16%
    08:00 +29°C° 0 mm 3 m/s 747 mmHg 14%
    09:00 +33°C° 0 mm 3 m/s 748 mmHg 11%
    10:00 +35°C° 0 mm 3 m/s 747 mmHg 10%
    11:00 +37°C° 0 mm 4 m/s 747 mmHg 9%
    12:00 +40°C° 0 mm 4 m/s 747 mmHg 8%
    13:00 +41°C° 0 mm 4 m/s 746 mmHg 8%
    14:00 +40°C° 0 mm 3 m/s 745 mmHg 8%
    15:00 +40°C° 0 mm 3 m/s 744 mmHg 8%
    16:00 +38°C° 0 mm 3 m/s 744 mmHg 10%
    17:00 +36°C° 0 mm 3 m/s 745 mmHg 11%
    18:00 +34°C° 0 mm 2 m/s 745 mmHg 13%
    19:00 +33°C° 0 mm 3 m/s 745 mmHg 13%
    20:00 +31°C° 0 mm 3 m/s 746 mmHg 14%
    21:00 +30°C° 0 mm 3 m/s 746 mmHg 15%
    22:00 +29°C° 0 mm 3 m/s 746 mmHg 15%
    23:00 +28°C° 0 mm 3 m/s 746 mmHg 15%

    Amanhã, 16 Dezembro, Domingo

    Tempo Temperatura Precipitação Vento Pressão Humidade
    00:00 +27°C° 0 mm 3 m/s 746 mmHg 15%
    01:00 +27°C° 0 mm 3 m/s 745 mmHg 15%
    02:00 +26°C° 0 mm 3 m/s 745 mmHg 15%
    03:00 +25°C° 0 mm 3 m/s 745 mmHg 15%
    04:00 +25°C° 0 mm 3 m/s 745 mmHg 15%
    05:00 +24°C° 0 mm 3 m/s 745 mmHg 15%
    06:00 +22°C° 0 mm 3 m/s 746 mmHg 16%
    07:00 +26°C° 0 mm 3 m/s 746 mmHg 13%
    08:00 +29°C° 0 mm 4 m/s 747 mmHg 11%
    09:00 +32°C° 0 mm 5 m/s 747 mmHg 9%
    10:00 +34°C° 0 mm 4 m/s 747 mmHg 8%
    11:00 +37°C° 0 mm 4 m/s 746 mmHg 8%
    12:00 +40°C° 0 mm 4 m/s 745 mmHg 7%
    13:00 +40°C° 0 mm 4 m/s 745 mmHg 7%
    14:00 +41°C° 0 mm 4 m/s 744 mmHg 7%
    15:00 +41°C° 0 mm 4 m/s 744 mmHg 7%
    16:00 +38°C° 0 mm 3 m/s 744 mmHg 8%
    17:00 +36°C° 0 mm 3 m/s 744 mmHg 10%
    18:00 +33°C° 0 mm 3 m/s 744 mmHg 11%
    19:00 +31°C° 0 mm 3 m/s 745 mmHg 11%
    20:00 +30°C° 0 mm 3 m/s 745 mmHg 12%
    21:00 +29°C° 0 mm 3 m/s 746 mmHg 12%
    22:00 +29°C° 0 mm 3 m/s 746 mmHg 13%
    23:00 +28°C° 0 mm 3 m/s 745 mmHg 13%

    Depois de amanhã, 17 Dezembro, Segunda-feira

    Tempo Temperatura Precipitação Vento Pressão Humidade
    00:00 +27°C° 0 mm 3 m/s 745 mmHg 14%
    01:00 +26°C° 0 mm 3 m/s 745 mmHg 14%
    02:00 +26°C° 0 mm 3 m/s 745 mmHg 14%
    03:00 +25°C° 0 mm 3 m/s 744 mmHg 14%
    04:00 +25°C° 0 mm 4 m/s 745 mmHg 14%
    05:00 +23°C° 0 mm 4 m/s 745 mmHg 14%
    06:00 +22°C° 0 mm 4 m/s 745 mmHg 14%
    07:00 +26°C° 0 mm 5 m/s 746 mmHg 13%
    08:00 +28°C° 0 mm 6 m/s 747 mmHg 11%
    09:00 +30°C° 0 mm 6 m/s 747 mmHg 10%
    10:00 +33°C° 0 mm 6 m/s 747 mmHg 9%
    11:00 +35°C° 0 mm 6 m/s 746 mmHg 8%
    12:00 +37°C° 0 mm 5 m/s 745 mmHg 7%
    13:00 +39°C° 0 mm 5 m/s 745 mmHg 7%
    14:00 +38°C° 0 mm 4 m/s 744 mmHg 7%
    15:00 +40°C° 0 mm 4 m/s 743 mmHg 7%
    16:00 +37°C° 0 mm 3 m/s 743 mmHg 8%
    17:00 +35°C° 0 mm 3 m/s 744 mmHg 9%
    18:00 +31°C° 0 mm 3 m/s 744 mmHg 11%
    19:00 +30°C° 0 mm 3 m/s 745 mmHg 11%
    20:00 +29°C° 0 mm 3 m/s 745 mmHg 12%
    21:00 +28°C° 0 mm 4 m/s 746 mmHg 13%
    22:00 +27°C° 0 mm 4 m/s 746 mmHg 13%
    23:00 +27°C° 0 mm 4 m/s 745 mmHg 14%

    18 Dezembro, Terça-feira

    Tempo Temperatura Precipitação Vento Pressão Humidade
    00:00 +26°C° 0 mm 4 m/s 745 mmHg 15%
    01:00 +25°C° 0 mm 4 m/s 745 mmHg 15%
    02:00 +23°C° 0 mm 4 m/s 745 mmHg 16%
    03:00 +23°C° 0 mm 4 m/s 745 mmHg 17%
    04:00 +22°C° 0 mm 3 m/s 745 mmHg 17%
    05:00 +21°C° 0 mm 3 m/s 745 mmHg 18%
    06:00 +21°C° 0 mm 3 m/s 746 mmHg 18%
    07:00 +23°C° 0 mm 4 m/s 746 mmHg 16%
    08:00 +26°C° 0 mm 5 m/s 747 mmHg 14%
    09:00 +29°C° 0 mm 5 m/s 747 mmHg 12%
    10:00 +32°C° 0 mm 5 m/s 747 mmHg 10%
    11:00 +34°C° 0 mm 5 m/s 746 mmHg 9%
    12:00 +37°C° 0 mm 4 m/s 745 mmHg 8%
    13:00 +37°C° 0 mm 4 m/s 745 mmHg 8%
    14:00 +38°C° 0 mm 3 m/s 744 mmHg 7%
    15:00 +38°C° 0 mm 3 m/s 743 mmHg 7%
    16:00 +36°C° 0 mm 3 m/s 744 mmHg 9%
    17:00 +34°C° 0 mm 3 m/s 744 mmHg 10%
    18:00 +31°C° 0 mm 3 m/s 744 mmHg 11%
    19:00 +30°C° 0 mm 3 m/s 745 mmHg 12%
    20:00 +29°C° 0 mm 3 m/s 745 mmHg 13%
    21:00 +27°C° 0 mm 3 m/s 746 mmHg 14%
    22:00 +27°C° 0 mm 3 m/s 746 mmHg 14%
    23:00 +26°C° 0 mm 3 m/s 745 mmHg 15%

    19 Dezembro, Quarta-feira

    Tempo Temperatura Precipitação Vento Pressão Humidade
    00:00 +25°C° 0 mm 3 m/s 745 mmHg 16%
    01:00 +24°C° 0 mm 3 m/s 745 mmHg 16%
    02:00 +24°C° 0 mm 3 m/s 745 mmHg 17%
    03:00 +22°C° 0 mm 3 m/s 744 mmHg 17%
    04:00 +21°C° 0 mm 3 m/s 745 mmHg 17%
    05:00 +21°C° 0 mm 3 m/s 745 mmHg 18%
    06:00 +20°C° 0 mm 3 m/s 746 mmHg 18%
    07:00 +23°C° 0 mm 4 m/s 746 mmHg 16%
    08:00 +26°C° 0 mm 4 m/s 747 mmHg 14%
    09:00 +28°C° 0 mm 5 m/s 747 mmHg 13%
    10:00 +32°C° 0 mm 5 m/s 747 mmHg 11%
    11:00 +34°C° 0 mm 4 m/s 746 mmHg 10%
    12:00 +36°C° 0 mm 4 m/s 745 mmHg 9%
    13:00 +36°C° 0 mm 4 m/s 745 mmHg 9%
    14:00 +37°C° 0 mm 3 m/s 744 mmHg 9%
    15:00 +37°C° 0 mm 3 m/s 743 mmHg 8%
    16:00 +35°C° 0 mm 3 m/s 743 mmHg 10%
    17:00 +33°C° 0 mm 3 m/s 744 mmHg 11%
    18:00 +30°C° 0 mm 3 m/s 744 mmHg 13%
    19:00 +29°C° 0 mm 3 m/s 744 mmHg 13%
    20:00 +28°C° 0 mm 3 m/s 745 mmHg 14%
    21:00 +27°C° 0 mm 3 m/s 745 mmHg 15%
    22:00 +26°C° 0 mm 3 m/s 745 mmHg 15%
    23:00 +25°C° 0 mm 3 m/s 745 mmHg 16%

    20 Dezembro, Quinta-feira

    Tempo Temperatura Precipitação Vento Pressão Humidade
    00:00 +25°C° 0 mm 3 m/s 745 mmHg 16%
    01:00 +24°C° 0 mm 3 m/s 744 mmHg 17%
    02:00 +22°C° 0 mm 3 m/s 744 mmHg 17%
    03:00 +22°C° 0 mm 3 m/s 744 mmHg 18%
    04:00 +21°C° 0 mm 3 m/s 744 mmHg 18%
    05:00 +21°C° 0 mm 3 m/s 745 mmHg 18%
    06:00 +20°C° 0 mm 3 m/s 745 mmHg 18%
    07:00 +23°C° 0 mm 4 m/s 745 mmHg 16%
    08:00 +26°C° 0 mm 4 m/s 746 mmHg 14%
    09:00 +28°C° 0 mm 5 m/s 746 mmHg 12%
    10:00 +32°C° 0 mm 5 m/s 746 mmHg 11%
    11:00 +34°C° 0 mm 4 m/s 745 mmHg 10%
    12:00 +36°C° 0 mm 4 m/s 745 mmHg 9%
    13:00 +37°C° 0 mm 4 m/s 744 mmHg 8%
    14:00 +37°C° 0 mm 3 m/s 743 mmHg 8%
    15:00 +38°C° 0 mm 3 m/s 743 mmHg 8%
    16:00 +35°C° 0 mm 3 m/s 743 mmHg 9%
    17:00 +33°C° 0 mm 3 m/s 743 mmHg 11%
    18:00 +30°C° 0 mm 3 m/s 744 mmHg 12%
    19:00 +29°C° 0 mm 3 m/s 744 mmHg 13%
    20:00 +28°C° 0 mm 3 m/s 745 mmHg 14%
    21:00 +27°C° 0 mm 3 m/s 745 mmHg 15%
    22:00 +26°C° 0 mm 3 m/s 745 mmHg 16%
    23:00 +25°C° 0 mm 3 m/s 745 mmHg 16%
    Mostrar mais